Location: Trebic
(49.2170°N, 15.8830°E)
Time: 22:46:29
(UTC+01:00)

Transit 4A - Pass Details

Date: 06 November 2020
Orbit: 862 x 982 km, 66.8° (Epoch: 30 November)

Event Time Altitude Azimuth Distance (km) Brightness Sun altitude
Rises 19:34:16 0° 322° (NW) 3,695 11.7 -30.8°
Reaches altitude 10° 19:37:17 10° 334° (NNW) 2,745 10.8 -31.3°
Enters shadow 19:41:06 25° 7° (N) 1,860 9.4 -31.9°
